• In Russia
  • List of Countries
  • For 7 days
  • Water Temperature
  • Satellite Maps
  • Weather Map
  • Weather Widgets
  • user-avatar
    Login

    Hourly Weather Dikhil

    Today, 15 August, Wednesday

    Time Temperature Precipitation Wind Pressure Humidity
    00:00 +36°C° 0.1 mm 3 mps 715 mmHg 41%
    01:00 +35°C° 0.7 mm 4 mps 715 mmHg 42%
    02:00 +34°C° 0.7 mm 5 mps 715 mmHg 42%
    03:00 +33°C° 0 mm 6 mps 714 mmHg 45%
    04:00 +33°C° 0.8 mm 6 mps 714 mmHg 45%
    05:00 +32°C° 0.8 mm 6 mps 715 mmHg 46%
    06:00 +32°C° 0.8 mm 6 mps 715 mmHg 46%
    07:00 +33°C° 0 mm 7 mps 715 mmHg 44%
    08:00 +33°C° 0 mm 7 mps 715 mmHg 42%
    09:00 +34°C° 0 mm 8 mps 716 mmHg 41%
    10:00 +35°C° 0 mm 8 mps 715 mmHg 38%
    11:00 +37°C° 0 mm 8 mps 715 mmHg 35%
    12:00 +38°C° 0 mm 8 mps 715 mmHg 32%
    13:00 +39°C° 0 mm 7 mps 715 mmHg 30%
    14:00 +40°C° 0 mm 6 mps 714 mmHg 28%
    15:00 +40°C° 0 mm 4 mps 714 mmHg 27%
    16:00 +40°C° 0 mm 4 mps 714 mmHg 27%
    17:00 +39°C° 0 mm 3 mps 713 mmHg 27%
    18:00 +39°C° 0 mm 3 mps 713 mmHg 27%
    19:00 +39°C° 0 mm 3 mps 714 mmHg 29%
    20:00 +38°C° 0 mm 2 mps 714 mmHg 31%
    21:00 +38°C° 0 mm 2 mps 714 mmHg 33%
    22:00 +37°C° 0 mm 2 mps 714 mmHg 34%
    23:00 +37°C° 0 mm 2 mps 715 mmHg 36%

    Tomorrow, 16 August, Thursday

    Time Temperature Precipitation Wind Pressure Humidity
    00:00 +36°C° 0 mm 2 mps 715 mmHg 38%
    01:00 +35°C° 0.3 mm 3 mps 715 mmHg 39%
    02:00 +35°C° 0.3 mm 4 mps 715 mmHg 41%
    03:00 +34°C° 0.3 mm 4 mps 714 mmHg 42%
    04:00 +33°C° 0.6 mm 4 mps 715 mmHg 44%
    05:00 +33°C° 0.6 mm 3 mps 715 mmHg 46%
    06:00 +31°C° 0.6 mm 3 mps 715 mmHg 47%
    07:00 +33°C° 0.1 mm 4 mps 715 mmHg 44%
    08:00 +34°C° 0.1 mm 5 mps 716 mmHg 40%
    09:00 +35°C° 0.1 mm 5 mps 716 mmHg 37%
    10:00 +36°C° 0 mm 6 mps 716 mmHg 34%
    11:00 +38°C° 0 mm 6 mps 716 mmHg 32%
    12:00 +39°C° 0 mm 6 mps 716 mmHg 29%
    13:00 +40°C° 0 mm 5 mps 715 mmHg 28%
    14:00 +40°C° 0 mm 4 mps 714 mmHg 27%
    15:00 +41°C° 0 mm 4 mps 714 mmHg 26%
    16:00 +39°C° 0 mm 3 mps 714 mmHg 26%
    17:00 +39°C° 0 mm 2 mps 713 mmHg 26%
    18:00 +39°C° 0 mm 2 mps 713 mmHg 26%
    19:00 +39°C° 0 mm 2 mps 713 mmHg 28%
    20:00 +38°C° 0 mm 2 mps 714 mmHg 30%
    21:00 +38°C° 0 mm 3 mps 714 mmHg 32%
    22:00 +37°C° 0 mm 3 mps 714 mmHg 35%
    23:00 +36°C° 0 mm 3 mps 715 mmHg 38%

    Day after tomorrow, 17 August, Friday

    Time Temperature Precipitation Wind Pressure Humidity
    00:00 +36°C° 0 mm 2 mps 715 mmHg 40%
    01:00 +35°C° 0.2 mm 3 mps 715 mmHg 42%
    02:00 +34°C° 0.2 mm 3 mps 714 mmHg 43%
    03:00 +34°C° 0.2 mm 4 mps 714 mmHg 44%
    04:00 +33°C° 0.5 mm 3 mps 714 mmHg 45%
    05:00 +33°C° 0.5 mm 3 mps 715 mmHg 46%
    06:00 +32°C° 0.5 mm 2 mps 715 mmHg 46%
    07:00 +33°C° 0.4 mm 4 mps 716 mmHg 45%
    08:00 +33°C° 0.4 mm 5 mps 716 mmHg 44%
    09:00 +34°C° 0.4 mm 7 mps 717 mmHg 43%
    10:00 +35°C° 0 mm 7 mps 716 mmHg 41%
    11:00 +36°C° 0 mm 7 mps 716 mmHg 38%
    12:00 +38°C° 0 mm 8 mps 716 mmHg 35%
    13:00 +38°C° 0 mm 7 mps 715 mmHg 34%
    14:00 +39°C° 0 mm 6 mps 714 mmHg 32%
    15:00 +39°C° 0 mm 6 mps 713 mmHg 30%
    16:00 +39°C° 0 mm 5 mps 713 mmHg 31%
    17:00 +38°C° 0 mm 4 mps 713 mmHg 31%
    18:00 +37°C° 0 mm 3 mps 712 mmHg 32%
    19:00 +37°C° 0 mm 3 mps 713 mmHg 33%
    20:00 +37°C° 0 mm 2 mps 713 mmHg 35%
    21:00 +36°C° 0 mm 2 mps 714 mmHg 36%
    22:00 +36°C° 0.1 mm 2 mps 714 mmHg 38%
    23:00 +35°C° 0.1 mm 2 mps 714 mmHg 40%

    18 August, Saturday

    Time Temperature Precipitation Wind Pressure Humidity
    00:00 +35°C° 0.1 mm 2 mps 714 mmHg 42%
    01:00 +34°C° 0.1 mm 2 mps 714 mmHg 43%
    02:00 +34°C° 0.1 mm 2 mps 713 mmHg 44%
    03:00 +33°C° 0.1 mm 3 mps 713 mmHg 46%
    04:00 +33°C° 0.5 mm 3 mps 713 mmHg 47%
    05:00 +32°C° 0.5 mm 4 mps 714 mmHg 49%
    06:00 +32°C° 0.5 mm 5 mps 714 mmHg 51%
    07:00 +32°C° 0.2 mm 6 mps 715 mmHg 50%
    08:00 +32°C° 0.2 mm 6 mps 715 mmHg 50%
    09:00 +33°C° 0.2 mm 6 mps 716 mmHg 50%
    10:00 +34°C° 0 mm 7 mps 716 mmHg 47%
    11:00 +34°C° 0 mm 7 mps 715 mmHg 44%
    12:00 +35°C° 0 mm 7 mps 715 mmHg 41%
    13:00 +36°C° 0 mm 7 mps 714 mmHg 39%
    14:00 +36°C° 0 mm 6 mps 713 mmHg 38%
    15:00 +37°C° 0 mm 5 mps 712 mmHg 37%
    16:00 +37°C° 0 mm 4 mps 712 mmHg 36%
    17:00 +37°C° 0 mm 4 mps 712 mmHg 36%
    18:00 +37°C° 0 mm 3 mps 712 mmHg 35%
    19:00 +36°C° 0 mm 3 mps 713 mmHg 37%
    20:00 +36°C° 0 mm 2 mps 713 mmHg 38%
    21:00 +36°C° 0 mm 2 mps 714 mmHg 39%
    22:00 +35°C° 0.2 mm 2 mps 714 mmHg 40%
    23:00 +35°C° 0.2 mm 2 mps 714 mmHg 41%

    19 August, Sunday

    Time Temperature Precipitation Wind Pressure Humidity
    00:00 +34°C° 0.2 mm 2 mps 714 mmHg 43%
    01:00 +34°C° 0 mm 3 mps 713 mmHg 43%
    02:00 +34°C° 0 mm 3 mps 713 mmHg 44%
    03:00 +33°C° 0 mm 4 mps 713 mmHg 45%
    04:00 +33°C° 0.2 mm 4 mps 713 mmHg 45%
    05:00 +33°C° 0.2 mm 4 mps 713 mmHg 45%
    06:00 +32°C° 0.2 mm 4 mps 714 mmHg 46%
    07:00 +33°C° 0 mm 5 mps 714 mmHg 43%
    08:00 +34°C° 0 mm 5 mps 715 mmHg 40%
    09:00 +35°C° 0 mm 6 mps 715 mmHg 38%
    10:00 +36°C° 0 mm 7 mps 715 mmHg 35%
    11:00 +38°C° 0 mm 7 mps 714 mmHg 33%
    12:00 +39°C° 0 mm 7 mps 714 mmHg 30%
    13:00 +40°C° 0 mm 6 mps 713 mmHg 29%
    14:00 +40°C° 0 mm 5 mps 712 mmHg 27%
    15:00 +41°C° 0 mm 5 mps 712 mmHg 25%
    16:00 +41°C° 0 mm 4 mps 712 mmHg 25%
    17:00 +39°C° 0 mm 3 mps 712 mmHg 25%
    18:00 +39°C° 0 mm 3 mps 712 mmHg 25%
    19:00 +39°C° 0 mm 2 mps 712 mmHg 27%
    20:00 +38°C° 0 mm 2 mps 713 mmHg 29%
    21:00 +38°C° 0 mm 2 mps 713 mmHg 30%
    22:00 +37°C° 0 mm 2 mps 713 mmHg 32%
    23:00 +37°C° 0 mm 3 mps 713 mmHg 34%

    20 August, Monday

    Time Temperature Precipitation Wind Pressure Humidity
    00:00 +36°C° 0 mm 3 mps 713 mmHg 36%
    01:00 +35°C° 0 mm 3 mps 713 mmHg 37%
    02:00 +35°C° 0 mm 4 mps 713 mmHg 38%
    03:00 +34°C° 0 mm 4 mps 713 mmHg 40%
    04:00 +34°C° 0 mm 4 mps 713 mmHg 41%
    05:00 +33°C° 0 mm 4 mps 714 mmHg 42%
    06:00 +33°C° 0 mm 4 mps 714 mmHg 43%
    07:00 +34°C° 0 mm 5 mps 715 mmHg 40%
    08:00 +35°C° 0 mm 6 mps 715 mmHg 37%
    09:00 +36°C° 0 mm 7 mps 716 mmHg 34%
    10:00 +38°C° 0 mm 7 mps 715 mmHg 32%
    11:00 +39°C° 0 mm 6 mps 715 mmHg 30%
    12:00 +40°C° 0 mm 6 mps 714 mmHg 28%
    13:00 +40°C° 0 mm 5 mps 714 mmHg 27%
    14:00 +41°C° 0 mm 5 mps 713 mmHg 26%
    15:00 +42°C° 0 mm 4 mps 712 mmHg 24%
    16:00 +40°C° 0 mm 3 mps 712 mmHg 25%
    17:00 +40°C° 0 mm 3 mps 712 mmHg 25%
    18:00 +40°C° 0 mm 2 mps 712 mmHg 25%
    19:00 +40°C° 0.1 mm 2 mps 713 mmHg 26%
    20:00 +39°C° 0.1 mm 2 mps 713 mmHg 28%
    21:00 +39°C° 0.1 mm 2 mps 714 mmHg 30%
    22:00 +38°C° 0.4 mm 2 mps 714 mmHg 32%
    23:00 +37°C° 0.4 mm 2 mps 714 mmHg 34%
    Show more